{"data":{"norad_id":61956,"intl_designator":"2024-209T","name":"STARLINK-32273","alt_names":[],"object_type":"PAYLOAD","status":"ACTIVE","operator":null,"country":"US","launch_date":"2024-11-14","launch_site_code":"AFWTR","launch_vehicle":null,"mission":null,"orbit_class":"UNKNOWN","rcs_meters":null,"size_class":null,"mass_kg":null,"dimensions":null,"purposes":["comms"],"wikipedia_slug":null,"has_3d_model":false,"image_url":null,"decayed_at":null,"tle_current":{"epoch":"2026-09-21T03:39:29.346336Z","epoch_age_seconds":129274,"freshness":"FRESH","line1":"1 61956U 24209T   26264.15242299  .00015987  00000+0  48326-3 0  9993","line2":"2 61956  53.1603 312.3370 0001246  80.3854 279.7289 15.34401298104856","mean_motion":15.34401298,"eccentricity":0.0001246,"inclination_deg":53.1603,"raan_deg":312.337,"arg_perigee_deg":80.3854,"mean_anomaly_deg":279.7289,"bstar":0.00048326,"rev_number":10485,"period_min":93.847678692462,"perigee_km":461.84701406705,"apogee_km":463.55175049352,"semimajor_km":6840.8363822803,"source":"CELESTRAK","updated_at":"2026-09-22T09:00:49.457048Z"}}}